User: anonymous   Login
Location: Brabourne
(51.1333°N, 1.0000°E)
Time: 11:27:09
(UTC+00:00)
Language:

Cosmos 1606 - Orbit

View from above orbital plane
View from above orbital plane
View from above satellite
View from above satellite

Ground track
Ground track

The orbit data is extracted from the following two-line orbital elements,

1 15369U 84111A   21259.65801337  .00001237  00000-0  60314-4 0  9992
2 15369  82.5290  33.4422 0015609 269.0655  90.8790 15.17301935 15738
Epoch (UTC): 16 September 2021 15:47:32
Eccentricity: 0.0015609
inclination: 82.5290°
perigee height: 503 km
apogee height: 525 km
right ascension of ascending node: 33.4422°
argument of perigee: 269.0655°
revolutions per day: 15.17301935
mean anomaly at epoch: 90.8790°
orbit number at epoch: 1573

The dashed part of the orbit path shows where the satellite is in the earth's shadow,  

DLR